Location: Vancouver
(49.2500°N, 123.1330°W)
Time: 04:40:59
(UTC-08:00)

ISS - All Passes

Search period start: 03 March 2015 00:00
Search period end: 13 March 2015 01:00
Orbit: 397 x 407 km, 51.6° (Epoch: 03 March)

Date Brightness Start Highest point End Pass type
(mag) Time Alt. Az. Time Alt. Az. Time Alt. Az.
03 Mar - 09:16:15 10° SSW 09:19:07 30° SSE 09:22:02 10° E daylight
03 Mar - 10:52:09 10° W 10:55:23 73° NNW 10:58:38 10° ENE daylight
03 Mar - 12:28:50 10° WNW 12:32:02 55° N 12:35:14 10° E daylight
03 Mar - 14:05:19 10° WNW 14:08:32 66° SSW 14:11:45 10° ESE daylight
03 Mar - 15:42:39 10° WSW 15:44:31 14° SW 15:46:19 10° S daylight
04 Mar - 08:23:52 10° S 08:26:14 19° SE 08:28:38 10° E daylight
04 Mar - 09:59:05 10° WSW 10:02:19 83° SSE 10:05:34 10° ENE daylight
04 Mar - 11:35:42 10° W 11:38:53 53° N 11:42:04 10° ENE daylight
04 Mar - 13:12:14 10° WNW 13:15:29 87° N 13:18:44 10° ESE daylight
04 Mar - 14:48:59 10° W 14:51:39 23° SW 14:54:16 10° SSE daylight
05 Mar - 07:32:16 10° SSE 07:33:22 11° SE 07:34:34 10° ESE daylight
05 Mar - 09:06:06 10° SW 09:09:15 55° SSE 09:12:27 10° ENE daylight
05 Mar - 10:42:31 10° W 10:45:43 57° N 10:48:55 10° ENE daylight
05 Mar - 12:19:08 10° WNW 12:22:22 66° NNE 12:25:36 10° E daylight
05 Mar - 13:55:40 10° W 13:58:42 37° SSW 14:01:43 10° SE daylight
06 Mar - 08:13:16 10° SW 08:16:14 34° SSE 08:19:14 10° E daylight
06 Mar - 09:49:19 10° W 09:52:33 69° NNW 09:55:46 10° ENE daylight
06 Mar - 11:26:00 10° WNW 11:29:11 56° N 11:32:23 10° E daylight
06 Mar - 13:02:27 10° WNW 13:05:39 58° SSW 13:08:51 10° SE daylight
06 Mar - 14:40:06 10° WSW 14:41:34 12° SW 14:42:58 10° SSW daylight
07 Mar - 07:20:42 10° SSW 07:23:15 22° SE 07:25:49 10° E daylight
07 Mar - 08:56:08 10° WSW 08:59:22 90° SW 09:02:37 10° ENE daylight
07 Mar - 10:32:47 10° WNW 10:35:57 53° N 10:39:08 10° E daylight
07 Mar - 12:09:17 10° WNW 12:12:32 87° SSW 12:15:46 10° ESE daylight
07 Mar - 13:46:08 10° W 13:48:38 20° SW 13:51:06 10° SSE daylight
08 Mar - 07:28:42 10° SSE 07:30:17 13° SE 07:31:56 10° ESE daylight
08 Mar - 09:03:02 10° SW 09:06:13 62° SSE 09:09:25 10° ENE daylight
08 Mar - 10:39:30 10° W 10:42:42 55° N 10:45:54 10° ENE daylight
08 Mar - 12:16:05 10° WNW 12:19:19 71° NNE 12:22:34 10° E daylight
08 Mar - 13:52:39 10° W 13:55:37 33° SSW 13:58:33 10° SSE daylight
09 Mar - 08:10:03 10° SW 08:13:05 39° SSE 08:16:08 10° E daylight
09 Mar - 09:46:12 10° W 09:49:25 65° NNW 09:52:39 10° ENE daylight
09 Mar - 11:22:52 10° WNW 11:26:04 58° N 11:29:16 10° E daylight
09 Mar - 12:59:20 10° WNW 13:02:30 52° SSW 13:05:39 10° SE daylight
09 Mar - 14:37:28 10° WSW 14:38:22 11° SW 14:39:08 10° SSW daylight
10 Mar - 07:17:19 10° SSW 07:19:59 24° SE 07:22:42 10° E daylight
10 Mar - 08:52:55 10° WSW 08:56:09 84° NNW 08:59:24 10° ENE daylight
10 Mar - 10:29:34 10° WNW 10:32:45 53° N 10:35:56 10° E daylight
10 Mar - 12:06:04 10° WNW 12:09:18 80° SSW 12:12:32 10° ESE daylight
10 Mar - 13:43:01 10° W 13:45:21 18° SW 13:47:37 10° S daylight
11 Mar - 06:25:01 10° S 06:26:55 15° SE 06:28:53 10° E visible
11 Mar - 07:59:40 10° WSW 08:02:54 69° SSE 08:06:07 10° ENE daylight
11 Mar - 09:36:13 10° W 09:39:24 54° N 09:42:36 10° ENE daylight
11 Mar - 11:12:47 10° WNW 11:16:01 75° NNE 11:19:15 10° ESE daylight
11 Mar - 12:49:23 10° W 12:52:15 29° SW 12:55:06 10° SSE daylight
12 Mar - 07:06:34 10° SW 07:09:40 44° SSE 07:12:46 10° ENE daylight
12 Mar - 08:42:50 10° W 08:46:02 62° N 08:49:15 10° ENE daylight
12 Mar - 10:19:28 10° WNW 10:22:41 60° N 10:25:53 10° E daylight
12 Mar - 11:55:57 10° WNW 11:59:04 47° SSW 12:02:11 10° SE daylight
